LDPE-1

Last updated on Sun Jul 06 2025 00:02:47 GMT+0000 (Coordinated Universal Time)

1 49818U 21118B 25186.54951329 -.00000254 00000+0 00000+0 0 9993 2 49818 2.8372 83.1784 0007027 6.2737 314.9742 1.00652184 13153
UTC large
Height (km)
Speed (km/s)
/
Latitude / Longitude
Inclination (degrees)
Orbital Period (minutes)
Azimuth
Elevation
Range (km)
Doppler Factor

Next 0 passes for location: London (51.5072 / 0.1276)

Sorry there are no passes over London.